📊 Raw Sensor Data

Showing records 48701 to 48725 of 85,106 total

ID Distance (ft) Battery V Battery A Int Temp (°F) Int Humid (%) Ext Temp (°F) Solar V RSSI SNR Time Stamp
36418 -- 4.09 -5 65 42 63 4.50 -80 7 03/30/2025 06:30 PM
36417 -- 4.06 0 65 42 64 4.50 -80 8 03/30/2025 06:15 PM
36416 15.0 4.07 0 65 42 65 5.10 -80 7 03/30/2025 06:00 PM
36415 -- 4.07 32 65 42 64 4.50 -80 6 03/30/2025 05:46 PM
36414 -- 4.08 27 66 42 65 4.50 -80 8 03/30/2025 05:30 PM
36413 -- 4.03 0 67 41 66 5.10 -80 7 03/30/2025 05:15 PM
36412 -- 4.03 0 66 42 65 5.10 -82 9 03/30/2025 05:00 PM
36411 -- 4.03 0 68 41 66 5.10 -85 8 03/30/2025 04:45 PM
36410 -- 4.03 0 67 42 66 5.10 -81 8 03/30/2025 04:30 PM
36409 -- 4.03 0 66 42 65 5.10 -81 8 03/30/2025 04:15 PM
36408 -- 4.03 0 69 41 65 5.10 -77 8 03/30/2025 04:00 PM
36407 -- 4.04 0 70 40 65 5.10 -79 9 03/30/2025 03:45 PM
36406 -- 4.03 0 72 38 67 5.10 -79 8 03/30/2025 03:16 PM
36405 -- 4.03 0 70 38 66 5.10 -78 8 03/30/2025 03:00 PM
36404 -- 4.03 0 68 39 65 5.10 -76 8 03/30/2025 02:45 PM
36403 -- 4.03 0 69 38 65 5.10 -80 7 03/30/2025 02:30 PM
36402 -- 4.03 0 68 38 65 5.10 -81 7 03/30/2025 02:16 PM
36401 -- 4.03 0 66 38 64 5.10 -80 8 03/30/2025 02:00 PM
36400 -- 4.14 0 63 40 61 5.10 -80 7 03/30/2025 01:45 PM
36399 -- 4.03 0 63 39 61 5.10 -80 8 03/30/2025 01:30 PM
36398 -- 4.03 0 63 39 61 5.10 -84 9 03/30/2025 01:15 PM
36397 -- 4.03 0 62 39 60 5.10 -81 9 03/30/2025 01:01 PM
36396 -- 4.05 0 61 39 59 5.10 -86 8 03/30/2025 12:45 PM
36395 -- 4.03 0 60 39 59 5.10 -83 9 03/30/2025 12:31 PM
36394 -- 4.03 0 61 38 59 5.10 -85 9 03/30/2025 12:15 PM